Weather History for Hammond, LA

Change the Weather History Date:

Tuesday, February 4, 2014

  Actual Average (KMSY) Record (KMSY)
Temperature  
Mean Temperature 56 °F -  
Max Temperature 69 °F 61 °F 81 °F (1957)
Min Temperature 42 °F 42 °F 19 °F (1970)
Degree Days  
Heating Degree Days 10    
Growing Degree Days 6 (Base 50)    
Moisture  
Dew Point 50 °F    
Average Humidity 92    
Maximum Humidity 94    
Minimum Humidity 82    
Precipitation  
Precipitation 0.19 in - - ()
Sea Level Pressure  
Sea Level Pressure 29.98 in    
Wind  
Wind Speed 6 mph (East)    
Max Wind Speed 20 mph    
Max Gust Speed 28 mph    
Visibility 3 miles    
Events Fog , Rain , Thunderstorm    
Averages and records for this station are not official NWS values.
T = Trace of Precipitation, MM = Missing Value Source: NWS Daily Summary

Daily Weather History Graph

Daily Weather History Graph

Search for Another Location

Airport:

Trip Planner

Search our weather history database for the weather conditions in past years. The results will help you decide how hot, cold, wet, or windy it might be!

Date:

Astronomy

Feb. 04, 2014 Rise Set
Actual Time 6:50 AM CST 5:40 PM CST
Civil Twilight 6:25 AM CST 6:05 PM CST
Nautical Twilight 5:57 AM CST 6:34 PM CST
Astronomical Twilight 5:28 AM CST 7:02 PM CST
Moon 9:54 AM CST (2/4) 11:07 PM CST (2/4)
Length of Visible Light 11h 40m
Length of Day
10h 49m
Waxing Crescent, 29% of the Moon is Illuminated
Feb 4
Waxing Crescent
Feb 6
First Quarter
Feb 14
Full
Feb 22
Last Quarter
Mar 1
New

Hourly Weather History & Observations

Time (CST) Temp. Windchill Dew Point Humidity Pressure Visibility Wind Dir Wind Speed Gust Speed Precip Events Conditions
12:15 AM 42.8 °F 39.3 °F 41.0 °F 93% 30.11 in 2.5 mi ENE 5.8 mph - N/A   Overcast
12:35 AM 42.8 °F 40.1 °F 41.0 °F 93% 30.10 in 1.8 mi NE 4.6 mph - N/A   Overcast
12:55 AM 42.8 °F - 41.0 °F 93% 30.11 in 1.8 mi Calm Calm - N/A   Overcast
1:15 AM 42.8 °F 38.6 °F 41.0 °F 93% 30.09 in 2.0 mi ENE 6.9 mph - N/A   Overcast
1:35 AM 42.8 °F 40.1 °F 41.0 °F 93% 30.09 in 2.5 mi ENE 4.6 mph - N/A   Overcast
1:55 AM 42.8 °F 39.3 °F 41.0 °F 93% 30.08 in 2.0 mi East 5.8 mph - N/A   Overcast
2:15 AM 42.8 °F 41.1 °F 41.0 °F 93% 30.08 in 3.0 mi ENE 3.5 mph - N/A   Overcast
2:35 AM 42.8 °F 41.1 °F 41.0 °F 93% 30.08 in 2.0 mi NE 3.5 mph - N/A   Overcast
2:55 AM 42.8 °F 39.3 °F 41.0 °F 93% 30.07 in 1.8 mi ENE 5.8 mph - N/A   Overcast
3:15 AM 42.8 °F 40.1 °F 41.0 °F 93% 30.06 in 2.0 mi ENE 4.6 mph - N/A   Overcast
3:35 AM 42.8 °F - 41.0 °F 93% 30.07 in 2.0 mi Calm Calm - N/A   Overcast
3:55 AM 42.8 °F 39.3 °F 41.0 °F 93% 30.06 in 1.8 mi East 5.8 mph - N/A   Overcast
4:15 AM 42.8 °F 40.1 °F 41.0 °F 93% 30.06 in 1.8 mi East 4.6 mph - N/A   Overcast
4:35 AM 42.8 °F - 41.0 °F 93% 30.06 in 1.5 mi Calm Calm - N/A   Overcast
4:55 AM 42.8 °F 40.1 °F 41.0 °F 93% 30.06 in 1.2 mi ENE 4.6 mph - N/A   Overcast
5:15 AM 42.8 °F 39.3 °F 41.0 °F 93% 30.05 in 1.0 mi ENE 5.8 mph - N/A   Overcast
5:35 AM 42.8 °F 38.6 °F 41.0 °F 93% 30.05 in 1.2 mi East 6.9 mph - N/A   Overcast
5:55 AM 42.8 °F 40.1 °F 41.0 °F 93% 30.05 in 1.0 mi East 4.6 mph - N/A   Overcast
6:15 AM 42.8 °F 40.1 °F 41.0 °F 93% 30.05 in 1.2 mi East 4.6 mph - N/A   Overcast
6:35 AM 42.8 °F - 41.0 °F 93% 30.05 in 1.5 mi Calm Calm - N/A   Overcast
6:55 AM 42.8 °F 41.1 °F 41.0 °F 93% 30.07 in 1.8 mi ESE 3.5 mph - N/A   Overcast
7:15 AM 44.6 °F 43.1 °F 41.0 °F 87% 30.04 in 0.8 mi East 3.5 mph - N/A   Overcast
7:35 AM 44.6 °F 41.4 °F 42.8 °F 93% 30.04 in 0.5 mi East 5.8 mph - N/A Fog Fog
7:55 AM 44.6 °F 42.2 °F 42.8 °F 93% 30.05 in 0.5 mi East 4.6 mph - N/A Fog Fog
8:15 AM 44.6 °F 42.2 °F 42.8 °F 93% 30.04 in 0.8 mi East 4.6 mph - N/A   Overcast
8:35 AM 44.6 °F 42.2 °F 42.8 °F 93% 30.04 in 0.8 mi East 4.6 mph - N/A   Overcast
8:55 AM 46.4 °F 45.2 °F 44.6 °F 93% 30.04 in 0.8 mi ESE 3.5 mph - N/A   Overcast
9:15 AM 46.4 °F - 44.6 °F 93% 30.05 in 0.8 mi Calm Calm - N/A   Overcast
9:35 AM 48.2 °F - 44.6 °F 87% 30.05 in 0.8 mi Calm Calm - N/A   Overcast
9:55 AM 48.2 °F - 46.4 °F 93% 30.05 in 0.5 mi East 3.5 mph - N/A Fog Fog
10:15 AM 48.2 °F - 46.4 °F 93% 30.03 in 0.8 mi ENE 3.5 mph - N/A   Overcast
10:35 AM 50.0 °F - 48.2 °F 94% 30.02 in 0.8 mi Calm Calm - N/A   Overcast
10:55 AM 50.0 °F - 48.2 °F 94% 30.02 in 1.5 mi ESE 3.5 mph - N/A   Overcast
11:15 AM 51.8 °F - 50.0 °F 94% 30.00 in 1.5 mi Calm Calm - N/A   Overcast
11:35 AM 51.8 °F - 50.0 °F 94% 30.00 in 1.2 mi Calm Calm - N/A   Overcast
11:55 AM 51.8 °F - 50.0 °F 94% 29.99 in 1.0 mi Calm Calm - N/A   Overcast
12:15 PM 53.6 °F - 51.8 °F 94% 29.97 in 1.2 mi Calm Calm - N/A   Overcast
12:35 PM 53.6 °F - 51.8 °F 94% 29.95 in 1.2 mi Calm Calm - N/A   Overcast
12:55 PM 57.2 °F - 53.6 °F 88% 29.94 in 1.0 mi SSE 5.8 mph - N/A   Overcast
1:15 PM 57.2 °F - 55.4 °F 94% 29.93 in 1.0 mi SE 9.2 mph - N/A   Overcast
1:35 PM 59.0 °F - 55.4 °F 88% 29.91 in 1.0 mi SE 11.5 mph - N/A   Overcast
1:55 PM 59.0 °F - 55.4 °F 88% 29.90 in 1.2 mi SE 10.4 mph - N/A   Overcast
2:15 PM 59.0 °F - 57.2 °F 94% 29.90 in 1.8 mi SE 9.2 mph - N/A   Overcast
2:35 PM 59.0 °F - 57.2 °F 94% 29.90 in 2.0 mi SE 8.1 mph - N/A   Overcast
2:55 PM 59.0 °F - 57.2 °F 94% 29.89 in 1.8 mi SE 10.4 mph - N/A   Overcast
3:15 PM 59.0 °F - 57.2 °F 94% 29.88 in 1.0 mi SE 10.4 mph - N/A   Overcast
3:35 PM 59.0 °F - 57.2 °F 94% 29.87 in 0.8 mi SE 9.2 mph - N/A   Overcast
3:55 PM 59.0 °F - 57.2 °F 94% 29.86 in 0.5 mi SE 8.1 mph - N/A Fog Fog
4:15 PM 60.8 °F - 59.0 °F 94% 29.85 in 0.5 mi SE 9.2 mph - N/A Fog Fog
4:35 PM 60.8 °F - 59.0 °F 94% 29.84 in 0.5 mi SE 5.8 mph - N/A Fog Fog
4:55 PM 62.6 °F - 59.0 °F 88% 29.84 in 0.5 mi SE 8.1 mph - N/A Fog Fog
5:15 PM 62.6 °F - 60.8 °F 94% 29.83 in 0.5 mi SE 9.2 mph - N/A Fog Fog
5:35 PM 64.4 °F - 62.6 °F 94% 29.83 in 2.0 mi SSE 11.5 mph - N/A Thunderstorm Overcast
6:15 PM 66.2 °F - 64.4 °F 94% 29.82 in 5.0 mi SSE 13.8 mph 26.5 mph 0.01 in Rain , Thunderstorm Light Thunderstorms and Rain
6:35 PM 68.0 °F - 66.2 °F 94% 29.82 in 7.0 mi South 16.1 mph 24.2 mph 0.01 in Rain , Thunderstorm Rain
6:55 PM 68.0 °F - 66.2 °F 94% 29.83 in 5.0 mi South 19.6 mph 24.2 mph 0.02 in Rain , Thunderstorm Heavy Thunderstorms and Rain
7:15 PM 68.0 °F - 66.2 °F 94% 29.85 in 4.0 mi South 16.1 mph 27.6 mph 0.01 in Rain , Thunderstorm Thunderstorms and Rain
7:35 PM 69.8 °F - 66.2 °F 88% 29.86 in 1.5 mi WSW 11.5 mph - 0.02 in Rain , Thunderstorm Heavy Thunderstorms and Rain
7:55 PM 69.8 °F - 66.2 °F 88% 29.87 in 4.0 mi WNW 19.6 mph 25.3 mph 0.03 in Rain , Thunderstorm Thunderstorms and Rain
8:15 PM 66.2 °F - 62.6 °F 88% 29.90 in 4.0 mi WNW 11.5 mph 23.0 mph 0.02 in Rain , Thunderstorm Thunderstorms and Rain
8:35 PM 64.4 °F - 60.8 °F 88% 29.91 in 10.0 mi WNW 11.5 mph - 0.04 in Thunderstorm Unknown
8:55 PM 62.6 °F - 59.0 °F 88% 29.92 in 7.0 mi WNW 12.7 mph 20.7 mph 0.05 in Rain Rain
9:15 PM 60.8 °F - 57.2 °F 88% 29.93 in 10.0 mi WNW 8.1 mph 21.9 mph 0.01 in   Overcast
9:35 PM 60.8 °F - 57.2 °F 88% 29.93 in 10.0 mi NW 12.7 mph - 0.02 in   Overcast
9:55 PM 59.0 °F - 55.4 °F 88% 29.94 in 10.0 mi NW 11.5 mph 16.1 mph 0.03 in   Overcast
10:15 PM 57.2 °F - 53.6 °F 88% 29.95 in 10.0 mi WNW 11.5 mph - 0.01 in   Overcast
10:35 PM 57.2 °F - 53.6 °F 88% 29.98 in 10.0 mi NW 10.4 mph - 0.02 in   Overcast
10:55 PM 55.4 °F - 51.8 °F 88% 29.99 in 10.0 mi NW 8.1 mph - 0.03 in   Overcast
11:15 PM 53.6 °F - 50.0 °F 88% 29.99 in 10.0 mi North 6.9 mph - 0.01 in   Overcast
11:35 PM 51.8 °F - 48.2 °F 88% 30.01 in 10.0 mi NW 10.4 mph - 0.02 in   Scattered Clouds
11:55 PM 51.8 °F - 46.4 °F 82% 30.02 in 10.0 mi NNW 9.2 mph - 0.03 in   Mostly Cloudy